"Pseudo-MPEC" for ZH87F10

Created 2018 Apr 23 7:18:19 UT using Find_Orb

Click here for an explanation of pseudo-MPECs

 
 Astrometry: 
     ZH87F10  C2018 04 16.27520 12 12 33.81 -09 42 02.2          21.3 GUNEOCPG96
     ZH87F10  C2018 04 16.28035 12 12 31.57 -09 42 05.4          21.9 GUNEOCPG96
     ZH87F10  C2018 04 16.28551 12 12 29.35 -09 42 09.5          21.4 GUNEOCPG96
     ZH87F10  C2018 04 16.29067 12 12 27.19 -09 42 12.6          21.1 GUNEOCPG96

Station data:
(G96) Mt. Lemmon Survey  (N32.442754 W110.788720)  US/Arizona.  Observers E.
   J. Christensen, A. R. Gibbs, A. D. Grauer, R. E. Hill, J. A. Johnson, R.
   A. Kowalski, S. M. Larson, F. C. Shelly. 1.5-m reflector + CCD.

Orbital elements:  ZH87F10
   Perigee 2018 Apr 14.200242 +/- 96.6 TT =  4:48:21 (JD 2458222.700242)
Epoch 2018 Apr 16.0 TT = JDT 2458224.5                        AutoNEOCP
q 12796.7961 +/- 6.35e+7            (J2000 equator)
H   32.8  G 0.15                    Peri.   66.02159 +/- 70
                                    Node   336.37110 +/- 31
e   1.2014966 +/- 0.224             Incl.   19.86817 +/- 39
From 4 observations 2018 Apr. 16 (22.3 min); mean residual 0".19
Residuals in arcseconds: 
180416 G96  .00   .25-    180416 G96  .09-  .13-    
180416 G96  .05+  .44+    180416 G96  .04+  .06-    

Ephemerides (geocentric):
Date (UTC) HH   RA              Dec         delta   r     elong  mag " sig PA
---- -- -- --  ------------   ------------  ------ ------ -----  --- ---- ---
2018 04 23 07  12 25 41.229   -10 11 43.28  .01458 1.0188 156.2 24.8  29d   1
2018 04 23 08  12 25 43.108   -10 11 50.31  .01464 1.0188 156.1 24.8  30d   1
2018 04 23 09  12 25 44.980   -10 11 57.31  .01471 1.0189 156.1 24.8  30d   1
2018 04 23 10  12 25 46.845   -10 12 04.28  .01477 1.0190 156.1 24.8  30d   1
2018 04 23 11  12 25 48.705   -10 12 11.22  .01483 1.0190 156.0 24.8  30d   1
2018 04 23 12  12 25 50.558   -10 12 18.13  .01490 1.0191 156.0 24.9  30d   1
2018 04 23 13  12 25 52.406   -10 12 25.02  .01496 1.0192 156.0 24.9  30d   1
2018 04 23 14  12 25 54.248   -10 12 31.88  .01502 1.0192 155.9 24.9  30d   1
2018 04 23 15  12 25 56.084   -10 12 38.72  .01509 1.0193 155.9 24.9  30d   1
2018 04 23 16  12 25 57.914   -10 12 45.53  .01515 1.0194 155.9 24.9  30d   1
2018 04 23 17  12 25 59.738   -10 12 52.31  .01521 1.0194 155.9 24.9  30d   1
2018 04 23 18  12 26 01.558   -10 12 59.07  .01528 1.0195 155.8 24.9  30d   1
2018 04 23 19  12 26 03.371   -10 13 05.80  .01534 1.0196 155.8 24.9  30d   1
2018 04 23 20  12 26 05.180   -10 13 12.51  .01541 1.0196 155.8 24.9  30d   1
2018 04 23 21  12 26 06.983   -10 13 19.20  .01547 1.0197 155.7 24.9  30d   1
2018 04 23 22  12 26 08.781   -10 13 25.86  .01553 1.0198 155.7 25.0  30d   1
2018 04 23 23  12 26 10.574   -10 13 32.50  .01560 1.0198 155.7 25.0  30d   1
2018 04 24 00  12 26 12.362   -10 13 39.12  .01566 1.0199 155.6 25.0  30d   1
2018 04 24 01  12 26 14.145   -10 13 45.72  .01572 1.0200 155.6 25.0  30d   1
2018 04 24 02  12 26 15.924   -10 13 52.29  .01579 1.0200 155.6 25.0  30d   1
2018 04 24 03  12 26 17.697   -10 13 58.84  .01585 1.0201 155.5 25.0  30d   1
2018 04 24 04  12 26 19.466   -10 14 05.37  .01591 1.0202 155.5 25.0  31d   2
2018 04 24 05  12 26 21.230   -10 14 11.88  .01598 1.0202 155.5 25.0  31d   2
2018 04 24 06  12 26 22.990   -10 14 18.37  .01604 1.0203 155.4 25.0  31d   2
2018 04 24 07  12 26 24.745   -10 14 24.84  .01610 1.0203 155.4 25.0  31d   2
2018 04 24 08  12 26 26.496   -10 14 31.29  .01617 1.0204 155.4 25.1  31d   2
2018 04 24 09  12 26 28.243   -10 14 37.72  .01623 1.0205 155.4 25.1  31d   2
2018 04 24 10  12 26 29.985   -10 14 44.13  .01629 1.0205 155.3 25.1  31d   2
2018 04 24 11  12 26 31.723   -10 14 50.53  .01636 1.0206 155.3 25.1  31d   2
2018 04 24 12  12 26 33.457   -10 14 56.90  .01642 1.0207 155.3 25.1  31d   2
2018 04 24 13  12 26 35.187   -10 15 03.25  .01649 1.0207 155.2 25.1  31d   2
2018 04 24 14  12 26 36.913   -10 15 09.59  .01655 1.0208 155.2 25.1  31d   2
2018 04 24 15  12 26 38.635   -10 15 15.91  .01661 1.0209 155.2 25.1  31d   2
2018 04 24 16  12 26 40.353   -10 15 22.21  .01668 1.0209 155.1 25.1  31d   2
2018 04 24 17  12 26 42.067   -10 15 28.50  .01674 1.0210 155.1 25.1  31d   2
2018 04 24 18  12 26 43.777   -10 15 34.76  .01680 1.0211 155.1 25.1  31d   2
2018 04 24 19  12 26 45.484   -10 15 41.01  .01687 1.0211 155.0 25.2  31d   2
2018 04 24 20  12 26 47.187   -10 15 47.25  .01693 1.0212 155.0 25.2  31d   2
2018 04 24 21  12 26 48.887   -10 15 53.47  .01699 1.0213 155.0 25.2  31d   2
2018 04 24 22  12 26 50.582   -10 15 59.67  .01706 1.0213 154.9 25.2  31d   2
2018 04 24 23  12 26 52.275   -10 16 05.86  .01712 1.0214 154.9 25.2  31d   2
2018 04 25 00  12 26 53.964   -10 16 12.03  .01718 1.0215 154.9 25.2  31d   2
2018 04 25 01  12 26 55.650   -10 16 18.18  .01725 1.0215 154.8 25.2  31d   2
2018 04 25 02  12 26 57.332   -10 16 24.32  .01731 1.0216 154.8 25.2  31d   2
2018 04 25 03  12 26 59.011   -10 16 30.45  .01738 1.0216 154.8 25.2  31d   2
2018 04 25 04  12 27 00.687   -10 16 36.56  .01744 1.0217 154.7 25.2  31d   2
2018 04 25 05  12 27 02.359   -10 16 42.66  .01750 1.0218 154.7 25.2  31d   2
2018 04 25 06  12 27 04.029   -10 16 48.74  .01757 1.0218 154.7 25.3  31d   2